Location: Unspecified
(0.0000°N, 0.0000°E)
Time: 14:17:17
(UTC+00:00)

Transit 4A - All Passes

Search period start: 02 February 2023 00:00
Search period end: 12 February 2023 00:00
Orbit: 871 x 973 km, 66.8° (Epoch: 01 February)

Date Brightness Start Highest point End Pass type
(mag) Time Alt. Az. Time Alt. Az. Time Alt. Az.
02 Feb - 04:22:29 10° NNW 04:28:37 72° ENE 04:34:55 10° SSE visible
02 Feb - 15:35:41 10° SSE 15:40:36 26° ESE 15:45:23 10° NE daylight
02 Feb - 17:21:56 10° WSW 17:26:38 24° WNW 17:31:15 10° NNW daylight
03 Feb - 04:31:40 10° NNW 04:37:48 69° WSW 04:44:05 10° SSE visible
03 Feb - 15:44:05 10° S 15:49:47 45° ESE 15:55:19 10° NE daylight
03 Feb - 17:33:01 10° W 17:35:48 13° WNW 17:38:34 10° NW daylight
04 Feb - 02:57:00 10° NNE 03:00:55 17° ENE 03:04:52 10° ESE visible
04 Feb - 04:41:14 10° NW 04:46:58 40° WSW 04:52:51 10° S visible
04 Feb - 15:52:56 10° SSW 15:58:56 79° ESE 16:04:47 10° NNE daylight
05 Feb - 03:04:48 10° NNE 03:10:05 30° ENE 03:15:28 10° SE visible
05 Feb - 04:51:18 10° WNW 04:56:10 24° WSW 05:01:08 10° SSW visible
05 Feb - 16:02:12 10° SSW 16:08:05 61° WNW 16:13:50 10° N daylight
06 Feb - 03:13:17 10° N 03:19:14 50° ENE 03:25:20 10° SE visible
06 Feb - 05:02:24 10° W 05:05:24 14° WSW 05:08:26 10° SW visible
06 Feb - 14:27:13 10° SSE 14:31:09 18° ESE 14:35:01 10° ENE daylight
06 Feb - 16:11:53 10° SW 16:17:14 35° WNW 16:22:29 10° N daylight
07 Feb - 03:22:12 10° NNW 03:28:23 85° ENE 03:34:44 10° SSE visible
07 Feb - 14:35:08 10° S 14:40:21 31° ESE 14:45:27 10° NE daylight
07 Feb - 16:22:11 10° WSW 16:26:23 20° WNW 16:30:32 10° NNW daylight
08 Feb - 01:49:28 10° NE 01:51:29 12° ENE 01:53:31 10° E night (unlit)
08 Feb - 03:31:29 10° NNW 03:37:34 57° WSW 03:43:46 10° S visible
08 Feb - 14:43:42 10° S 14:49:32 54° ESE 14:55:13 10° NNE daylight
08 Feb - 16:34:17 10° W 16:35:34 11° WNW 16:36:51 10° WNW daylight
09 Feb - 01:56:10 10° NNE 02:00:41 21° ENE 02:05:15 10° ESE visible
09 Feb - 03:41:13 10° NW 03:46:45 34° WSW 03:52:23 10° S visible
09 Feb - 14:52:42 10° SSW 14:58:41 87° WNW 15:04:31 10° NNE daylight
10 Feb - 02:04:15 10° N 02:09:51 36° ENE 02:15:32 10° SE visible
10 Feb - 03:51:32 10° WNW 03:55:57 20° WSW 04:00:26 10° SSW visible
10 Feb - 13:19:32 10° SE 13:21:41 12° ESE 13:23:50 10° E daylight
10 Feb - 15:02:06 10° SW 15:07:50 50° WNW 15:13:27 10° N daylight
11 Feb - 02:12:55 10° N 02:19:00 61° ENE 02:25:14 10° SSE visible
11 Feb - 04:03:31 10° W 04:05:11 11° WSW 04:06:52 10° SW visible
11 Feb - 13:26:28 10° SSE 13:30:55 22° ESE 13:35:17 10° ENE daylight
11 Feb - 15:11:57 10° SW 15:16:58 29° WNW 15:21:55 10° NNW daylight
